Time,TemperatureF,DewpointF,PressureIn,WindDirection,WindDirectionDegrees,WindSpeedMPH,WindSpeedGustMPH,Humidity,HourlyPrecipIn,Conditions,Clouds,dailyrainin,SoftwareType,DateUTC
2013-05-29 00:01:00,53.8,37.0,29.81,West,270,15.0,16.0,53,0.00,,,0.00,meteohub,2013-05-29 07:01:00,
2013-05-29 00:06:00,53.8,37.0,29.81,West,270,12.0,20.0,53,0.00,,,0.00,meteohub,2013-05-29 07:06:00,
2013-05-29 00:11:00,53.6,37.4,29.81,WNW,293,10.0,20.0,54,0.00,,,0.00,meteohub,2013-05-29 07:11:00,
2013-05-29 00:16:00,53.6,37.8,29.81,West,270,10.0,20.0,55,0.00,,,0.00,meteohub,2013-05-29 07:16:00,
2013-05-29 00:21:00,53.4,38.1,29.81,NW,315,11.0,19.0,56,0.00,,,0.00,meteohub,2013-05-29 07:21:00,
2013-05-29 00:26:00,53.8,37.9,29.81,West,270,8.0,13.0,55,0.00,,,0.00,meteohub,2013-05-29 07:26:00,
2013-05-29 00:31:00,53.8,37.9,29.81,NW,315,12.0,12.0,55,0.00,,,0.00,meteohub,2013-05-29 07:31:00,
2013-05-29 00:37:00,53.8,37.9,29.81,NW,315,11.0,12.0,55,0.00,,,0.00,meteohub,2013-05-29 07:37:00,
2013-05-29 00:42:00,53.8,37.9,29.81,West,270,8.0,12.0,55,0.00,,,0.00,meteohub,2013-05-29 07:42:00,
2013-05-29 00:47:00,53.8,37.9,29.80,North,0,8.0,12.0,55,0.00,,,0.00,meteohub,2013-05-29 07:47:00,
2013-05-29 00:52:00,53.8,37.9,29.80,NW,315,9.0,11.0,55,0.00,,,0.00,meteohub,2013-05-29 07:52:00,
2013-05-29 00:57:00,53.6,37.4,29.80,West,270,11.0,11.0,54,0.00,,,0.00,meteohub,2013-05-29 07:57:00,
2013-05-29 01:02:00,53.6,37.4,29.80,NW,315,7.0,11.0,54,0.00,,,0.00,meteohub,2013-05-29 08:02:00,
2013-05-29 01:07:00,53.6,37.4,29.79,NW,315,7.0,11.0,54,0.00,,,0.00,meteohub,2013-05-29 08:07:00,
2013-05-29 01:12:00,53.4,37.2,29.80,SW,225,7.0,11.0,54,0.00,,,0.00,meteohub,2013-05-29 08:12:00,
2013-05-29 01:17:00,53.2,37.0,29.79,West,270,8.0,8.0,54,0.00,,,0.00,meteohub,2013-05-29 08:17:00,
2013-05-29 01:22:00,53.2,37.0,29.79,West,270,4.0,8.0,54,0.00,,,0.00,meteohub,2013-05-29 08:22:00,
2013-05-29 01:27:00,53.1,36.9,29.79,West,270,4.0,8.0,54,0.00,,,0.00,meteohub,2013-05-29 08:27:00,
2013-05-29 01:32:00,52.9,36.7,29.80,West,270,6.0,8.0,54,0.00,,,0.00,meteohub,2013-05-29 08:32:00,
2013-05-29 01:37:00,52.9,36.7,29.79,West,270,4.0,8.0,54,0.00,,,0.00,meteohub,2013-05-29 08:37:00,
2013-05-29 01:42:00,52.9,36.7,29.79,West,270,3.0,8.0,54,0.00,,,0.00,meteohub,2013-05-29 08:42:00,
2013-05-29 01:47:00,52.7,36.5,29.79,NE,45,4.0,8.0,54,0.00,,,0.00,meteohub,2013-05-29 08:47:00,
2013-05-29 01:52:00,52.7,36.5,29.80,NNW,338,6.0,8.0,54,0.00,,,0.00,meteohub,2013-05-29 08:52:00,
2013-05-29 01:57:00,52.7,36.5,29.79,SW,225,4.0,7.0,54,0.00,,,0.00,meteohub,2013-05-29 08:57:00,
2013-05-29 02:02:00,52.7,36.5,29.79,West,270,4.0,7.0,54,0.00,,,0.00,meteohub,2013-05-29 09:02:00,
2013-05-29 02:07:00,52.7,36.5,29.79,West,270,4.0,7.0,54,0.00,,,0.00,meteohub,2013-05-29 09:07:00,
2013-05-29 02:12:00,52.7,36.5,29.79,NW,315,7.0,8.0,54,0.00,,,0.00,meteohub,2013-05-29 09:12:00,
2013-05-29 02:17:00,52.7,36.5,29.80,West,270,5.0,8.0,54,0.00,,,0.00,meteohub,2013-05-29 09:17:00,
2013-05-29 02:22:00,52.7,36.0,29.79,NW,315,7.0,8.0,53,0.00,,,0.00,meteohub,2013-05-29 09:22:00,
2013-05-29 02:27:00,52.9,36.7,29.79,SW,225,6.0,8.0,54,0.00,,,0.00,meteohub,2013-05-29 09:27:00,
2013-05-29 02:32:00,52.9,36.7,29.78,West,270,9.0,9.0,54,0.00,,,0.00,meteohub,2013-05-29 09:32:00,
2013-05-29 02:37:00,52.9,36.7,29.79,SW,225,11.0,13.0,54,0.00,,,0.00,meteohub,2013-05-29 09:37:00,
2013-05-29 02:42:00,52.9,36.7,29.79,West,270,11.0,13.0,54,0.00,,,0.00,meteohub,2013-05-29 09:42:00,
2013-05-29 02:47:00,52.9,36.7,29.79,West,270,11.0,13.0,54,0.00,,,0.00,meteohub,2013-05-29 09:47:00,
2013-05-29 02:52:00,52.9,36.7,29.79,SW,225,8.0,12.0,54,0.00,,,0.00,meteohub,2013-05-29 09:52:00,
2013-05-29 02:57:00,52.9,36.7,29.79,West,270,5.0,12.0,54,0.00,,,0.00,meteohub,2013-05-29 09:57:00,
2013-05-29 03:02:00,52.7,36.5,29.79,South,180,6.0,11.0,54,0.00,,,0.00,meteohub,2013-05-29 10:02:00,
2013-05-29 03:07:00,52.7,36.5,29.79,South,180,6.0,11.0,54,0.00,,,0.00,meteohub,2013-05-29 10:07:00,
2013-05-29 03:12:00,52.3,36.1,29.78,SW,225,4.0,7.0,54,0.00,,,0.00,meteohub,2013-05-29 10:12:00,
2013-05-29 03:17:00,52.3,36.1,29.78,West,270,4.0,7.0,54,0.00,,,0.00,meteohub,2013-05-29 10:17:00,
2013-05-29 03:22:00,52.3,36.7,29.78,SW,225,5.0,7.0,55,0.00,,,0.00,meteohub,2013-05-29 10:22:00,
2013-05-29 03:27:00,52.3,36.7,29.77,West,270,8.0,8.0,55,0.00,,,0.00,meteohub,2013-05-29 10:27:00,
2013-05-29 03:32:00,52.2,36.5,29.77,SW,225,7.0,8.0,55,0.00,,,0.00,meteohub,2013-05-29 10:32:00,
2013-05-29 03:37:00,52.2,36.5,29.77,West,270,5.0,8.0,55,0.00,,,0.00,meteohub,2013-05-29 10:37:00,
2013-05-29 03:42:00,52.2,36.5,29.78,West,270,5.0,8.0,55,0.00,,,0.00,meteohub,2013-05-29 10:42:00,
2013-05-29 03:47:00,52.0,36.3,29.78,West,270,4.0,7.0,55,0.00,,,0.00,meteohub,2013-05-29 10:47:00,
2013-05-29 03:52:00,52.2,36.5,29.78,SW,225,4.0,7.0,55,0.00,,,0.00,meteohub,2013-05-29 10:52:00,
2013-05-29 03:57:00,52.0,36.3,29.78,West,270,7.0,7.0,55,0.00,,,0.00,meteohub,2013-05-29 10:57:00,
2013-05-29 04:02:00,52.0,35.8,29.79,West,270,7.0,8.0,54,0.00,,,0.00,meteohub,2013-05-29 11:02:00,
2013-05-29 04:07:00,52.0,36.3,29.78,NW,315,6.0,8.0,55,0.00,,,0.00,meteohub,2013-05-29 11:07:00,
2013-05-29 04:12:00,52.0,36.3,29.79,West,270,7.0,9.0,55,0.00,,,0.00,meteohub,2013-05-29 11:12:00,
2013-05-29 04:17:00,52.0,35.8,29.78,West,270,6.0,9.0,54,0.00,,,0.00,meteohub,2013-05-29 11:17:00,
2013-05-29 04:22:00,52.0,35.8,29.79,West,270,6.0,9.0,54,0.00,,,0.00,meteohub,2013-05-29 11:22:00,
2013-05-29 04:27:00,52.0,35.8,29.78,West,270,8.0,8.0,54,0.00,,,0.00,meteohub,2013-05-29 11:27:00,
2013-05-29 04:32:00,52.2,36.0,29.79,West,270,6.0,8.0,54,0.00,,,0.00,meteohub,2013-05-29 11:32:00,
2013-05-29 04:37:00,52.3,36.7,29.79,WNW,293,8.0,8.0,55,0.00,,,0.00,meteohub,2013-05-29 11:37:00,
2013-05-29 04:42:00,52.5,36.9,29.79,West,270,8.0,8.0,55,0.00,,,0.00,meteohub,2013-05-29 11:42:00,
2013-05-29 04:47:00,52.7,37.0,29.79,West,270,8.0,10.0,55,0.00,,,0.00,meteohub,2013-05-29 11:47:00,
2013-05-29 04:52:00,52.9,37.2,29.79,West,270,8.0,10.0,55,0.00,,,0.00,meteohub,2013-05-29 11:52:00,
2013-05-29 04:57:00,52.9,37.2,29.79,NW,315,8.0,11.0,55,0.00,,,0.00,meteohub,2013-05-29 11:57:00,
2013-05-29 05:02:00,52.9,37.6,29.79,NW,315,8.0,11.0,56,0.00,,,0.00,meteohub,2013-05-29 12:02:00,
2013-05-29 05:07:00,52.9,37.2,29.79,West,270,5.0,11.0,55,0.00,,,0.00,meteohub,2013-05-29 12:07:00,
2013-05-29 05:12:00,53.1,37.4,29.79,West,270,6.0,8.0,55,0.00,,,0.00,meteohub,2013-05-29 12:12:00,
2013-05-29 05:17:00,53.1,37.4,29.79,West,270,4.0,8.0,55,0.00,,,0.00,meteohub,2013-05-29 12:17:00,
2013-05-29 05:22:00,53.1,37.4,29.79,West,270,6.0,6.0,55,0.00,,,0.00,meteohub,2013-05-29 12:22:00,
2013-05-29 05:27:00,53.1,37.4,29.79,West,270,4.0,6.0,55,0.00,,,0.00,meteohub,2013-05-29 12:27:00,
2013-05-29 05:32:00,53.2,37.4,29.79,West,270,2.0,6.0,55,0.00,,,0.00,meteohub,2013-05-29 12:32:00,
2013-05-29 05:37:00,53.2,37.4,29.78,West,270,3.0,6.0,55,0.00,,,0.00,meteohub,2013-05-29 12:37:00,
2013-05-29 05:42:00,53.2,37.4,29.78,West,270,2.0,4.0,55,0.00,,,0.00,meteohub,2013-05-29 12:42:00,
2013-05-29 05:47:00,53.2,37.4,29.78,SE,135,2.0,4.0,55,0.00,,,0.00,meteohub,2013-05-29 12:47:00,
2013-05-29 05:52:00,53.4,37.6,29.78,SE,135,0.0,4.0,55,0.00,,,0.00,meteohub,2013-05-29 12:52:00,
2013-05-29 05:57:00,53.4,37.6,29.79,NW,315,0.0,3.0,55,0.00,,,0.00,meteohub,2013-05-29 12:57:00,
2013-05-29 06:02:00,53.6,37.4,29.79,West,270,2.0,3.0,54,0.00,,,0.00,meteohub,2013-05-29 13:02:00,
2013-05-29 06:07:00,53.6,36.9,29.79,West,270,2.0,2.0,53,0.00,,,0.00,meteohub,2013-05-29 13:07:00,
2013-05-29 06:12:00,53.6,37.4,29.79,NW,315,3.0,3.0,54,0.00,,,0.00,meteohub,2013-05-29 13:12:00,
2013-05-29 06:17:00,53.8,37.0,29.79,West,270,4.0,4.0,53,0.00,,,0.00,meteohub,2013-05-29 13:17:00,
2013-05-29 06:22:00,54.0,37.2,29.78,West,270,3.0,4.0,53,0.00,,,0.00,meteohub,2013-05-29 13:22:00,
2013-05-29 06:27:00,54.1,36.9,29.79,West,270,3.0,4.0,52,0.00,,,0.00,meteohub,2013-05-29 13:27:00,
2013-05-29 06:32:00,54.3,36.5,29.79,West,270,3.0,4.0,51,0.00,,,0.00,meteohub,2013-05-29 13:32:00,
2013-05-29 06:37:00,54.7,36.9,29.79,West,270,3.0,4.0,51,0.00,,,0.00,meteohub,2013-05-29 13:37:00,
2013-05-29 06:42:00,54.9,36.5,29.79,West,270,3.0,4.0,50,0.00,,,0.00,meteohub,2013-05-29 13:42:00,
2013-05-29 06:47:00,55.0,36.7,29.79,West,270,1.0,4.0,50,0.00,,,0.00,meteohub,2013-05-29 13:47:00,
2013-05-29 06:52:00,55.2,36.3,29.79,NW,315,2.0,4.0,49,0.00,,,0.00,meteohub,2013-05-29 13:52:00,
2013-05-29 06:57:00,55.4,36.5,29.79,NW,315,2.0,3.0,49,0.00,,,0.00,meteohub,2013-05-29 13:57:00,
2013-05-29 07:02:00,55.6,36.1,29.79,NW,315,3.0,3.0,48,0.00,,,0.00,meteohub,2013-05-29 14:02:00,
2013-05-29 07:07:00,55.6,36.1,29.79,NW,315,3.0,3.0,48,0.00,,,0.00,meteohub,2013-05-29 14:07:00,
2013-05-29 07:12:00,56.1,36.7,29.80,NW,315,2.0,3.0,48,0.00,,,0.00,meteohub,2013-05-29 14:12:00,
2013-05-29 07:17:00,56.5,37.0,29.79,South,180,0.0,3.0,48,0.00,,,0.00,meteohub,2013-05-29 14:17:00,
2013-05-29 07:22:00,56.7,36.7,29.79,North,0,3.0,3.0,47,0.00,,,0.00,meteohub,2013-05-29 14:22:00,
2013-05-29 07:27:00,56.8,36.9,29.79,NW,315,3.0,3.0,47,0.00,,,0.00,meteohub,2013-05-29 14:27:00,
2013-05-29 07:32:00,57.4,36.7,29.79,West,270,2.0,3.0,46,0.00,,,0.00,meteohub,2013-05-29 14:32:00,
2013-05-29 07:37:00,58.3,37.6,29.79,West,270,4.0,4.0,46,0.00,,,0.00,meteohub,2013-05-29 14:37:00,
2013-05-29 07:42:00,58.5,37.8,29.79,North,0,4.0,4.0,46,0.00,,,0.00,meteohub,2013-05-29 14:42:00,
2013-05-29 07:47:00,58.8,38.1,29.79,West,270,5.0,5.0,46,0.00,,,0.00,meteohub,2013-05-29 14:47:00,
2013-05-29 07:52:00,58.8,38.1,29.79,NW,315,4.0,7.0,46,0.00,,,0.00,meteohub,2013-05-29 14:52:00,
2013-05-29 07:57:00,58.8,38.7,29.79,North,0,4.0,7.0,47,0.00,,,0.00,meteohub,2013-05-29 14:57:00,
2013-05-29 08:02:00,59.0,37.8,29.79,West,270,6.0,7.0,45,0.00,,,0.00,meteohub,2013-05-29 15:02:00,
2013-05-29 08:07:00,59.2,37.9,29.80,West,270,6.0,8.0,45,0.00,,,0.00,meteohub,2013-05-29 15:07:00,
2013-05-29 08:12:00,59.2,37.9,29.80,NW,315,5.0,8.0,45,0.00,,,0.00,meteohub,2013-05-29 15:12:00,
2013-05-29 08:17:00,59.5,38.1,29.79,West,270,4.0,6.0,45,0.00,,,0.00,meteohub,2013-05-29 15:17:00,
2013-05-29 08:22:00,59.9,38.5,29.79,West,270,4.0,6.0,45,0.00,,,0.00,meteohub,2013-05-29 15:22:00,
2013-05-29 08:27:00,60.3,38.8,29.79,West,270,6.0,6.0,45,0.00,,,0.00,meteohub,2013-05-29 15:27:00,
2013-05-29 08:32:00,60.1,38.7,29.79,West,270,5.0,8.0,45,0.00,,,0.00,meteohub,2013-05-29 15:32:00,
2013-05-29 08:37:00,60.4,39.0,29.79,West,270,7.0,8.0,45,0.00,,,0.00,meteohub,2013-05-29 15:37:00,
2013-05-29 08:42:00,60.4,38.5,29.79,West,270,8.0,9.0,44,0.00,,,0.00,meteohub,2013-05-29 15:42:00,
2013-05-29 08:47:00,60.8,39.4,29.79,West,270,4.0,9.0,45,0.00,,,0.00,meteohub,2013-05-29 15:47:00,
2013-05-29 08:52:00,61.7,39.6,29.79,North,0,6.0,9.0,44,0.00,,,0.00,meteohub,2013-05-29 15:52:00,
2013-05-29 08:57:00,62.1,40.5,29.80,West,270,8.0,8.0,45,0.00,,,0.00,meteohub,2013-05-29 15:57:00,
2013-05-29 09:02:00,62.1,39.9,29.80,NW,315,9.0,9.0,44,0.00,,,0.00,meteohub,2013-05-29 16:02:00,
2013-05-29 09:07:00,62.1,39.9,29.80,NW,315,9.0,9.0,44,0.00,,,0.00,meteohub,2013-05-29 16:07:00,
2013-05-29 09:12:00,62.2,40.1,29.80,West,270,5.0,9.0,44,0.00,,,0.00,meteohub,2013-05-29 16:12:00,
2013-05-29 09:17:00,62.2,40.1,29.80,West,270,8.0,9.0,44,0.00,,,0.00,meteohub,2013-05-29 16:17:00,
2013-05-29 09:22:00,62.2,40.1,29.80,NW,315,7.0,9.0,44,0.00,,,0.00,meteohub,2013-05-29 16:22:00,
2013-05-29 09:27:00,62.4,40.3,29.80,West,270,7.0,9.0,44,0.00,,,0.00,meteohub,2013-05-29 16:27:00,
2013-05-29 09:32:00,62.4,40.3,29.80,West,270,8.0,8.0,44,0.00,,,0.00,meteohub,2013-05-29 16:32:00,
2013-05-29 09:37:00,62.6,39.7,29.80,West,270,8.0,9.0,43,0.00,,,0.00,meteohub,2013-05-29 16:37:00,
2013-05-29 09:42:00,62.8,39.9,29.80,NW,315,6.0,9.0,43,0.00,,,0.00,meteohub,2013-05-29 16:42:00,
2013-05-29 09:47:00,63.1,40.8,29.80,NW,315,8.0,9.0,44,0.00,,,0.00,meteohub,2013-05-29 16:47:00,
2013-05-29 09:52:00,63.3,41.0,29.80,West,270,7.0,9.0,44,0.00,,,0.00,meteohub,2013-05-29 16:52:00,
2013-05-29 09:57:00,63.5,41.2,29.80,West,270,8.0,8.0,44,0.00,,,0.00,meteohub,2013-05-29 16:57:00,
2013-05-29 10:02:00,64.0,42.3,29.79,West,270,10.0,10.0,45,0.00,,,0.00,meteohub,2013-05-29 17:02:00,
2013-05-29 10:07:00,64.4,43.2,29.80,NW,315,8.0,10.0,46,0.00,,,0.00,meteohub,2013-05-29 17:07:00,
2013-05-29 10:12:00,64.6,43.3,29.80,NW,315,8.0,10.0,46,0.00,,,0.00,meteohub,2013-05-29 17:12:00,
2013-05-29 10:17:00,64.2,42.4,29.80,NW,315,9.0,12.0,45,0.00,,,0.00,meteohub,2013-05-29 17:17:00,
2013-05-29 10:22:00,63.9,42.1,29.80,West,270,9.0,13.0,45,0.00,,,0.00,meteohub,2013-05-29 17:22:00,
2013-05-29 10:27:00,63.1,41.5,29.80,NW,315,11.0,15.0,45,0.00,,,0.00,meteohub,2013-05-29 17:27:00,
2013-05-29 10:32:00,63.0,41.4,29.79,West,270,9.0,15.0,45,0.00,,,0.00,meteohub,2013-05-29 17:32:00,
2013-05-29 10:37:00,63.3,41.5,29.79,NW,315,10.0,15.0,45,0.00,,,0.00,meteohub,2013-05-29 17:37:00,
2013-05-29 10:42:00,63.9,42.1,29.79,West,270,13.0,14.0,45,0.00,,,0.00,meteohub,2013-05-29 17:42:00,
2013-05-29 10:47:00,64.2,42.4,29.80,West,270,11.0,13.0,45,0.00,,,0.00,meteohub,2013-05-29 17:47:00,
2013-05-29 10:52:00,64.9,43.7,29.79,NW,315,12.0,15.0,46,0.00,,,0.00,meteohub,2013-05-29 17:52:00,
2013-05-29 10:57:00,64.9,43.7,29.79,West,270,11.0,15.0,46,0.00,,,0.00,meteohub,2013-05-29 17:57:00,
2013-05-29 11:02:00,64.4,43.2,29.80,NW,315,15.0,15.0,46,0.00,,,0.00,meteohub,2013-05-29 18:02:00,
2013-05-29 11:07:00,64.4,43.2,29.79,NW,315,15.0,15.0,46,0.00,,,0.00,meteohub,2013-05-29 18:07:00,
2013-05-29 11:12:00,63.9,42.1,29.79,West,270,14.0,15.0,45,0.00,,,0.00,meteohub,2013-05-29 18:12:00,
2013-05-29 11:17:00,64.2,42.4,29.80,NW,315,11.0,15.0,45,0.00,,,0.00,meteohub,2013-05-29 18:17:00,
2013-05-29 11:22:00,64.4,43.2,29.80,NW,315,11.0,15.0,46,0.00,,,0.00,meteohub,2013-05-29 18:22:00,
2013-05-29 11:27:00,64.8,43.5,29.80,West,270,16.0,16.0,46,0.00,,,0.00,meteohub,2013-05-29 18:27:00,
2013-05-29 11:32:00,64.2,42.4,29.80,West,270,12.0,17.0,45,0.00,,,0.00,meteohub,2013-05-29 18:32:00,
2013-05-29 11:37:00,63.3,41.5,29.80,NW,315,16.0,17.0,45,0.00,,,0.00,meteohub,2013-05-29 18:37:00,
2013-05-29 11:42:00,63.1,41.5,29.80,NW,315,12.0,17.0,45,0.00,,,0.00,meteohub,2013-05-29 18:42:00,
2013-05-29 11:47:00,63.5,41.7,29.80,NW,315,13.0,17.0,45,0.00,,,0.00,meteohub,2013-05-29 18:47:00,
2013-05-29 11:52:00,63.3,42.3,29.80,NW,315,13.0,17.0,46,0.00,,,0.00,meteohub,2013-05-29 18:52:00,
2013-05-29 11:57:00,63.1,41.5,29.80,West,270,18.0,18.0,45,0.00,,,0.00,meteohub,2013-05-29 18:57:00,
2013-05-29 12:02:00,62.4,41.9,29.80,NW,315,17.0,21.0,47,0.00,,,0.00,meteohub,2013-05-29 19:02:00,
2013-05-29 12:07:00,62.4,40.8,29.80,West,270,17.0,21.0,45,0.00,,,0.00,meteohub,2013-05-29 19:07:00,
2013-05-29 12:12:00,62.1,40.5,29.79,NW,315,15.0,21.0,45,0.00,,,0.00,meteohub,2013-05-29 19:12:00,
2013-05-29 12:17:00,62.1,40.5,29.80,West,270,18.0,18.0,45,0.00,,,0.00,meteohub,2013-05-29 19:17:00,
2013-05-29 12:22:00,61.5,39.9,29.80,West,270,20.0,20.0,45,0.00,,,0.00,meteohub,2013-05-29 19:22:00,
2013-05-29 12:27:00,61.3,39.7,29.80,West,270,18.0,20.0,45,0.00,,,0.00,meteohub,2013-05-29 19:27:00,
2013-05-29 12:33:00,61.9,40.3,29.80,NW,315,15.0,20.0,45,0.00,,,0.00,meteohub,2013-05-29 19:33:00,
2013-05-29 12:38:00,61.9,40.8,29.79,West,270,15.0,20.0,46,0.00,,,0.00,meteohub,2013-05-29 19:38:00,
2013-05-29 12:43:00,61.7,39.6,29.79,WNW,293,15.0,18.0,44,0.00,,,0.00,meteohub,2013-05-29 19:43:00,
2013-05-29 12:48:00,61.7,40.1,29.79,NW,315,13.0,18.0,45,0.00,,,0.00,meteohub,2013-05-29 19:48:00,
2013-05-29 12:53:00,61.7,40.1,29.79,NW,315,17.0,18.0,45,0.00,,,0.00,meteohub,2013-05-29 19:53:00,
2013-05-29 12:58:00,61.7,40.6,29.79,West,270,18.0,18.0,46,0.00,,,0.00,meteohub,2013-05-29 19:58:00,
2013-05-29 13:03:00,61.7,40.6,29.79,West,270,15.0,19.0,46,0.00,,,0.00,meteohub,2013-05-29 20:03:00,
2013-05-29 13:08:00,61.9,40.3,29.78,West,270,16.0,19.0,45,0.00,,,0.00,meteohub,2013-05-29 20:08:00,
2013-05-29 13:13:00,61.9,40.3,29.78,West,270,15.0,19.0,45,0.00,,,0.00,meteohub,2013-05-29 20:13:00,
2013-05-29 13:18:00,61.9,40.3,29.78,NW,315,18.0,18.0,45,0.00,,,0.00,meteohub,2013-05-29 20:18:00,
2013-05-29 13:24:00,62.1,40.5,29.78,SW,225,12.0,18.0,45,0.00,,,0.00,meteohub,2013-05-29 20:24:00,
2013-05-29 13:29:00,62.1,40.5,29.78,West,270,15.0,18.0,45,0.00,,,0.00,meteohub,2013-05-29 20:29:00,
2013-05-29 13:34:00,62.4,41.9,29.78,NW,315,18.0,19.0,47,0.00,,,0.00,meteohub,2013-05-29 20:34:00,
2013-05-29 13:39:00,62.4,41.4,29.78,West,270,15.0,20.0,46,0.00,,,0.00,meteohub,2013-05-29 20:39:00,
2013-05-29 13:44:00,63.0,40.6,29.78,West,270,21.0,21.0,44,0.00,,,0.00,meteohub,2013-05-29 20:44:00,
2013-05-29 13:49:00,62.1,41.0,29.78,North,0,12.0,20.0,46,0.00,,,0.00,meteohub,2013-05-29 20:49:00,
2013-05-29 13:54:00,61.7,40.1,29.78,West,270,17.0,22.0,45,0.00,,,0.00,meteohub,2013-05-29 20:54:00,
2013-05-29 13:59:00,61.2,39.7,29.77,West,270,14.0,22.0,45,0.00,,,0.00,meteohub,2013-05-29 20:59:00,
2013-05-29 14:04:00,61.2,40.3,29.78,West,270,11.0,22.0,46,0.00,,,0.00,meteohub,2013-05-29 21:04:00,
2013-05-29 14:09:00,61.7,39.6,29.78,NW,315,19.0,22.0,44,0.00,,,0.00,meteohub,2013-05-29 21:09:00,
2013-05-29 14:14:00,62.1,40.5,29.77,NW,315,16.0,22.0,45,0.00,,,0.00,meteohub,2013-05-29 21:14:00,
2013-05-29 14:19:00,62.6,40.5,29.77,West,270,17.0,21.0,44,0.00,,,0.00,meteohub,2013-05-29 21:19:00,
2013-05-29 14:25:00,62.4,40.8,29.77,West,270,20.0,23.0,45,0.00,,,0.00,meteohub,2013-05-29 21:25:00,
2013-05-29 14:30:00,62.2,40.6,29.77,NW,315,16.0,23.0,45,0.00,,,0.00,meteohub,2013-05-29 21:30:00,
2013-05-29 14:35:00,61.7,40.1,29.77,NW,315,18.0,23.0,45,0.00,,,0.00,meteohub,2013-05-29 21:35:00,
2013-05-29 14:40:00,61.5,39.4,29.77,West,270,22.0,23.0,44,0.00,,,0.00,meteohub,2013-05-29 21:40:00,
2013-05-29 14:45:00,61.2,39.7,29.77,West,270,13.0,23.0,45,0.00,,,0.00,meteohub,2013-05-29 21:45:00,
2013-05-29 14:50:00,61.5,39.4,29.77,WNW,293,16.0,23.0,44,0.00,,,0.00,meteohub,2013-05-29 21:50:00,
2013-05-29 14:55:00,61.5,39.9,29.77,NW,315,16.0,22.0,45,0.00,,,0.00,meteohub,2013-05-29 21:55:00,
2013-05-29 15:00:00,61.3,39.2,29.77,West,270,13.0,24.0,44,0.00,,,0.00,meteohub,2013-05-29 22:00:00,
2013-05-29 15:05:00,61.3,39.2,29.77,West,270,13.0,24.0,44,0.00,,,0.00,meteohub,2013-05-29 22:05:00,
2013-05-29 15:11:00,61.3,39.2,29.77,West,270,17.0,24.0,44,0.00,,,0.00,meteohub,2013-05-29 22:11:00,
2013-05-29 15:16:00,61.2,39.0,29.77,NW,315,11.0,20.0,44,0.00,,,0.00,meteohub,2013-05-29 22:16:00,
2013-05-29 15:21:00,61.7,39.6,29.77,West,270,18.0,20.0,44,0.00,,,0.00,meteohub,2013-05-29 22:21:00,
2013-05-29 15:26:00,61.7,40.1,29.77,West,270,14.0,20.0,45,0.00,,,0.00,meteohub,2013-05-29 22:26:00,
2013-05-29 15:31:00,61.5,39.9,29.76,NW,315,17.0,20.0,45,0.00,,,0.00,meteohub,2013-05-29 22:31:00,
2013-05-29 15:36:00,61.7,39.6,29.77,West,270,13.0,20.0,44,0.00,,,0.00,meteohub,2013-05-29 22:36:00,
2013-05-29 15:41:00,61.7,40.1,29.77,NW,315,20.0,20.0,45,0.00,,,0.00,meteohub,2013-05-29 22:41:00,
2013-05-29 15:46:00,61.2,39.0,29.77,West,270,17.0,23.0,44,0.00,,,0.00,meteohub,2013-05-29 22:46:00,
2013-05-29 15:51:00,60.8,39.4,29.77,SW,225,17.0,23.0,45,0.00,,,0.00,meteohub,2013-05-29 22:51:00,
2013-05-29 15:56:00,61.2,39.0,29.76,West,270,17.0,23.0,44,0.00,,,0.00,meteohub,2013-05-29 22:56:00,
2013-05-29 16:01:00,60.8,39.4,29.76,NW,315,17.0,23.0,45,0.00,,,0.00,meteohub,2013-05-29 23:01:00,
2013-05-29 16:06:00,60.8,39.4,29.76,NW,315,15.0,23.0,45,0.00,,,0.00,meteohub,2013-05-29 23:06:00,
2013-05-29 16:12:00,60.8,39.4,29.76,NW,315,15.0,23.0,45,0.00,,,0.00,meteohub,2013-05-29 23:12:00,
2013-05-29 16:17:00,61.0,38.8,29.76,NW,315,11.0,22.0,44,0.00,,,0.00,meteohub,2013-05-29 23:17:00,
2013-05-29 16:22:00,61.5,39.4,29.76,NW,315,16.0,22.0,44,0.00,,,0.00,meteohub,2013-05-29 23:22:00,
2013-05-29 16:27:00,61.2,39.0,29.76,NW,315,16.0,19.0,44,0.00,,,0.00,meteohub,2013-05-29 23:27:00,
2013-05-29 16:32:00,61.0,38.8,29.76,West,270,16.0,21.0,44,0.00,,,0.00,meteohub,2013-05-29 23:32:00,
2013-05-29 16:37:00,60.3,39.4,29.76,NW,315,20.0,21.0,46,0.00,,,0.00,meteohub,2013-05-29 23:37:00,
2013-05-29 16:42:00,60.1,38.7,29.76,West,270,13.0,21.0,45,0.00,,,0.00,meteohub,2013-05-29 23:42:00,
2013-05-29 16:47:00,59.9,38.5,29.76,NW,315,15.0,21.0,45,0.00,,,0.00,meteohub,2013-05-29 23:47:00,
2013-05-29 16:52:00,60.1,38.7,29.76,West,270,21.0,21.0,45,0.00,,,0.00,meteohub,2013-05-29 23:52:00,
2013-05-29 16:57:00,59.9,38.5,29.76,NW,315,13.0,21.0,45,0.00,,,0.00,meteohub,2013-05-29 23:57:00,
2013-05-29 17:02:00,59.9,38.5,29.76,NW,315,15.0,21.0,45,0.00,,,0.00,meteohub,2013-05-30 00:02:00,
2013-05-29 17:07:00,59.9,38.5,29.76,NW,315,15.0,21.0,45,0.00,,,0.00,meteohub,2013-05-30 00:07:00,
2013-05-29 17:12:00,60.3,39.4,29.76,West,270,14.0,18.0,46,0.00,,,0.00,meteohub,2013-05-30 00:12:00,
2013-05-29 17:17:00,60.3,38.8,29.77,West,270,11.0,15.0,45,0.00,,,0.00,meteohub,2013-05-30 00:17:00,
2013-05-29 17:22:00,60.4,39.0,29.76,West,270,10.0,15.0,45,0.00,,,0.00,meteohub,2013-05-30 00:22:00,
2013-05-29 17:27:00,61.0,38.8,29.76,West,270,11.0,15.0,44,0.00,,,0.00,meteohub,2013-05-30 00:27:00,
2013-05-29 17:32:00,60.6,39.2,29.76,West,270,12.0,15.0,45,0.00,,,0.00,meteohub,2013-05-30 00:32:00,
2013-05-29 17:37:00,60.4,39.0,29.76,SW,225,12.0,14.0,45,0.00,,,0.00,meteohub,2013-05-30 00:37:00,
2013-05-29 17:42:00,60.6,39.2,29.76,NW,315,12.0,15.0,45,0.00,,,0.00,meteohub,2013-05-30 00:42:00,
2013-05-29 17:47:00,60.1,38.7,29.77,West,270,8.0,15.0,45,0.00,,,0.00,meteohub,2013-05-30 00:47:00,
2013-05-29 17:52:00,59.9,39.0,29.76,West,270,11.0,16.0,46,0.00,,,0.00,meteohub,2013-05-30 00:52:00,
2013-05-29 17:57:00,59.7,38.3,29.76,NW,315,15.0,16.0,45,0.00,,,0.00,meteohub,2013-05-30 00:57:00,
2013-05-29 18:02:00,59.7,38.3,29.76,West,270,17.0,17.0,45,0.00,,,0.00,meteohub,2013-05-30 01:02:00,
2013-05-29 18:07:00,59.5,38.1,29.76,West,270,16.0,17.0,45,0.00,,,0.00,meteohub,2013-05-30 01:07:00,
2013-05-29 18:12:00,59.4,37.9,29.76,West,270,10.0,17.0,45,0.00,,,0.00,meteohub,2013-05-30 01:12:00,
2013-05-29 18:17:00,59.4,37.9,29.76,SW,225,12.0,17.0,45,0.00,,,0.00,meteohub,2013-05-30 01:17:00,
2013-05-29 18:22:00,59.4,37.9,29.76,West,270,9.0,17.0,45,0.00,,,0.00,meteohub,2013-05-30 01:22:00,
2013-05-29 18:27:00,59.2,37.9,29.76,West,270,14.0,17.0,45,0.00,,,0.00,meteohub,2013-05-30 01:27:00,
2013-05-29 18:32:00,59.0,37.8,29.76,NW,315,16.0,17.0,45,0.00,,,0.00,meteohub,2013-05-30 01:32:00,
2013-05-29 18:37:00,58.8,38.1,29.76,West,270,12.0,17.0,46,0.00,,,0.00,meteohub,2013-05-30 01:37:00,
2013-05-29 18:42:00,58.8,38.1,29.77,NW,315,11.0,17.0,46,0.00,,,0.00,meteohub,2013-05-30 01:42:00,
2013-05-29 18:47:00,58.8,38.1,29.77,NW,315,10.0,16.0,46,0.00,,,0.00,meteohub,2013-05-30 01:47:00,
2013-05-29 18:52:00,58.3,37.6,29.76,SW,225,8.0,16.0,46,0.00,,,0.00,meteohub,2013-05-30 01:52:00,
2013-05-29 18:57:00,58.3,37.6,29.76,West,270,11.0,19.0,46,0.00,,,0.00,meteohub,2013-05-30 01:57:00,
2013-05-29 19:02:00,58.3,37.6,29.76,NW,315,11.0,19.0,46,0.00,,,0.00,meteohub,2013-05-30 02:02:00,
2013-05-29 19:07:00,58.3,37.6,29.76,NW,315,11.0,17.0,46,0.00,,,0.00,meteohub,2013-05-30 02:07:00,
2013-05-29 19:12:00,58.1,37.4,29.76,SW,225,11.0,16.0,46,0.00,,,0.00,meteohub,2013-05-30 02:12:00,
2013-05-29 19:17:00,57.7,37.0,29.76,West,270,7.0,16.0,46,0.00,,,0.00,meteohub,2013-05-30 02:17:00,
2013-05-29 19:22:00,57.7,37.0,29.77,NW,315,11.0,16.0,46,0.00,,,0.00,meteohub,2013-05-30 02:22:00,
2013-05-29 19:27:00,57.6,36.9,29.77,West,270,11.0,16.0,46,0.00,,,0.00,meteohub,2013-05-30 02:27:00,
2013-05-29 19:32:00,57.4,36.7,29.77,West,270,14.0,14.0,46,0.00,,,0.00,meteohub,2013-05-30 02:32:00,
2013-05-29 19:37:00,57.0,37.0,29.77,West,270,17.0,17.0,47,0.00,,,0.00,meteohub,2013-05-30 02:37:00,
2013-05-29 19:42:00,56.5,36.5,29.77,West,270,12.0,17.0,47,0.00,,,0.00,meteohub,2013-05-30 02:42:00,
2013-05-29 19:47:00,56.1,36.1,29.77,West,270,12.0,18.0,47,0.00,,,0.00,meteohub,2013-05-30 02:47:00,
2013-05-29 19:52:00,55.9,36.0,29.77,West,270,11.0,20.0,47,0.00,,,0.00,meteohub,2013-05-30 02:52:00,
2013-05-29 19:57:00,55.8,35.2,29.77,NW,315,13.0,20.0,46,0.00,,,0.00,meteohub,2013-05-30 02:57:00,
2013-05-29 20:02:00,55.8,35.8,29.78,West,270,7.0,15.0,47,0.00,,,0.00,meteohub,2013-05-30 03:02:00,
2013-05-29 20:07:00,55.8,35.8,29.78,West,270,7.0,15.0,47,0.00,,,0.00,meteohub,2013-05-30 03:07:00,
2013-05-29 20:12:00,55.9,36.0,29.78,West,270,4.0,14.0,47,0.00,,,0.00,meteohub,2013-05-30 03:12:00,
2013-05-29 20:17:00,55.6,35.1,29.78,NW,315,4.0,14.0,46,0.00,,,0.00,meteohub,2013-05-30 03:17:00,
2013-05-29 20:22:00,55.2,35.4,29.78,West,270,6.0,10.0,47,0.00,,,0.00,meteohub,2013-05-30 03:22:00,
2013-05-29 20:27:00,55.0,35.2,29.78,SW,225,9.0,9.0,47,0.00,,,0.00,meteohub,2013-05-30 03:27:00,
2013-05-29 20:32:00,54.7,34.9,29.78,West,270,6.0,9.0,47,0.00,,,0.00,meteohub,2013-05-30 03:32:00,
2013-05-29 20:37:00,54.5,34.7,29.78,SW,225,8.0,9.0,47,0.00,,,0.00,meteohub,2013-05-30 03:37:00,
2013-05-29 20:42:00,54.3,34.5,29.78,NW,315,8.0,10.0,47,0.00,,,0.00,meteohub,2013-05-30 03:42:00,
2013-05-29 20:47:00,54.1,33.3,29.78,South,180,8.0,10.0,45,0.00,,,0.00,meteohub,2013-05-30 03:47:00,
2013-05-29 20:52:00,54.1,33.3,29.78,East,90,4.0,10.0,45,0.00,,,0.00,meteohub,2013-05-30 03:52:00,
2013-05-29 20:57:00,54.1,33.3,29.78,SW,225,7.0,9.0,45,0.00,,,0.00,meteohub,2013-05-30 03:57:00,
2013-05-29 21:01:00,54.0,33.1,29.78,West,270,9.0,9.0,45,0.00,,,0.00,meteohub,2013-05-30 04:01:00,
2013-05-29 21:02:00,54.0,33.1,29.78,West,270,9.0,9.0,45,0.00,,,0.00,meteohub,2013-05-30 04:02:00,
2013-05-29 21:03:00,54.0,33.1,29.78,West,270,9.0,9.0,45,0.00,,,0.00,meteohub,2013-05-30 04:03:00,
2013-05-29 21:06:00,54.0,33.1,29.78,West,270,9.0,9.0,45,0.00,,,0.00,meteohub,2013-05-30 04:06:00,
2013-05-29 21:11:00,54.0,33.1,29.79,South,180,8.0,9.0,45,0.00,,,0.00,meteohub,2013-05-30 04:11:00,
2013-05-29 21:17:00,53.8,32.9,29.78,SW,225,6.0,10.0,45,0.00,,,0.00,meteohub,2013-05-30 04:17:00,
2013-05-29 21:22:00,53.8,32.9,29.79,West,270,11.0,11.0,45,0.00,,,0.00,meteohub,2013-05-30 04:22:00,
2013-05-29 21:27:00,53.8,33.4,29.79,West,270,10.0,11.0,46,0.00,,,0.00,meteohub,2013-05-30 04:27:00,
2013-05-29 21:32:00,53.4,33.6,29.79,West,270,9.0,11.0,47,0.00,,,0.00,meteohub,2013-05-30 04:32:00,
2013-05-29 21:37:00,53.2,33.1,29.79,West,270,11.0,11.0,46,0.00,,,0.00,meteohub,2013-05-30 04:37:00,
2013-05-29 21:42:00,53.4,33.6,29.79,South,180,5.0,11.0,47,0.00,,,0.00,meteohub,2013-05-30 04:42:00,
2013-05-29 21:47:00,53.4,33.6,29.80,West,270,6.0,11.0,47,0.00,,,0.00,meteohub,2013-05-30 04:47:00,
2013-05-29 21:52:00,53.1,32.9,29.80,West,270,9.0,11.0,46,0.00,,,0.00,meteohub,2013-05-30 04:52:00,
2013-05-29 21:57:00,53.1,33.4,29.80,SW,225,5.0,11.0,47,0.00,,,0.00,meteohub,2013-05-30 04:57:00,
2013-05-29 22:02:00,53.1,33.4,29.80,West,270,7.0,11.0,47,0.00,,,0.00,meteohub,2013-05-30 05:02:00,
2013-05-29 22:07:00,52.9,32.7,29.80,NW,315,8.0,11.0,46,0.00,,,0.00,meteohub,2013-05-30 05:07:00,
2013-05-29 22:12:00,52.9,32.7,29.80,NW,315,9.0,11.0,46,0.00,,,0.00,meteohub,2013-05-30 05:12:00,
2013-05-29 22:17:00,52.9,32.7,29.80,West,270,8.0,11.0,46,0.00,,,0.00,meteohub,2013-05-30 05:17:00,
2013-05-29 22:22:00,52.9,32.7,29.80,West,270,10.0,11.0,46,0.00,,,0.00,meteohub,2013-05-30 05:22:00,
2013-05-29 22:27:00,52.9,32.7,29.80,West,270,8.0,11.0,46,0.00,,,0.00,meteohub,2013-05-30 05:27:00,
2013-05-29 22:32:00,52.9,32.7,29.80,NW,315,11.0,11.0,46,0.00,,,0.00,meteohub,2013-05-30 05:32:00,
2013-05-29 22:37:00,52.9,32.7,29.80,West,270,6.0,11.0,46,0.00,,,0.00,meteohub,2013-05-30 05:37:00,
2013-05-29 22:42:00,52.5,32.4,29.80,South,180,7.0,11.0,46,0.00,,,0.00,meteohub,2013-05-30 05:42:00,
2013-05-29 22:47:00,52.3,32.2,29.80,South,180,4.0,11.0,46,0.00,,,0.00,meteohub,2013-05-30 05:47:00,
2013-05-29 22:52:00,52.2,32.0,29.80,WNW,293,8.0,9.0,46,0.00,,,0.00,meteohub,2013-05-30 05:52:00,
2013-05-29 22:57:00,52.2,32.0,29.80,SW,225,10.0,12.0,46,0.00,,,0.00,meteohub,2013-05-30 05:57:00,
2013-05-29 23:02:00,52.2,32.0,29.80,West,270,12.0,12.0,46,0.00,,,0.00,meteohub,2013-05-30 06:02:00,
2013-05-29 23:07:00,52.3,32.2,29.80,NW,315,10.0,12.0,46,0.00,,,0.00,meteohub,2013-05-30 06:07:00,
2013-05-29 23:12:00,52.3,32.2,29.79,WSW,248,9.0,12.0,46,0.00,,,0.00,meteohub,2013-05-30 06:12:00,
2013-05-29 23:17:00,52.3,32.2,29.79,South,180,7.0,12.0,46,0.00,,,0.00,meteohub,2013-05-30 06:17:00,
2013-05-29 23:22:00,52.3,32.2,29.79,West,270,8.0,12.0,46,0.00,,,0.00,meteohub,2013-05-30 06:22:00,
2013-05-29 23:27:00,52.2,32.0,29.80,West,270,11.0,12.0,46,0.00,,,0.00,meteohub,2013-05-30 06:27:00,
2013-05-29 23:32:00,52.0,31.8,29.79,West,270,8.0,11.0,46,0.00,,,0.00,meteohub,2013-05-30 06:32:00,
2013-05-29 23:37:00,52.0,31.8,29.79,SW,225,7.0,11.0,46,0.00,,,0.00,meteohub,2013-05-30 06:37:00,
2013-05-29 23:42:00,52.0,31.8,29.79,South,180,8.0,11.0,46,0.00,,,0.00,meteohub,2013-05-30 06:42:00,
2013-05-29 23:47:00,52.0,31.3,29.79,NW,315,9.0,10.0,45,0.00,,,0.00,meteohub,2013-05-30 06:47:00,
2013-05-29 23:52:00,52.0,31.8,29.79,West,270,5.0,10.0,46,0.00,,,0.00,meteohub,2013-05-30 06:52:00,
2013-05-29 23:57:00,52.0,31.8,29.79,West,270,11.0,11.0,46,0.00,,,0.00,meteohub,2013-05-30 06:57:00,